Radiation Dose at Monitoring Post of Fukushima Daini Nuclear Power Station
Date,Time,MP-1(microSv/h),MP-2(microSv/h),MP-3(microSv/h),MP-4(microSv/h),MP-5(microSv/h),MP-6(microSv/h),MP-7(microSv/h),Wind Direction,Wind Velocity(m/s),Rain
2018/06/18,00:00,0.304,0.191,0.307,0.296,0.283,0.150,0.093,south-southwest,10.0,No
2018/06/18,00:10,0.303,0.192,0.306,0.296,0.284,0.152,0.093,south-southwest,10.4,No
2018/06/18,00:20,0.305,0.191,0.307,0.295,0.283,0.151,0.093,south-southwest,10.9,No
2018/06/18,00:30,0.304,0.192,0.306,0.296,0.282,0.151,0.094,south-southwest,9.8,No
2018/06/18,00:40,0.306,0.192,0.305,0.296,0.283,0.151,0.092,south-southwest,10.4,No
2018/06/18,00:50,0.303,0.193,0.307,0.296,0.283,0.151,0.092,south-southwest,9.8,No
2018/06/18,01:00,0.306,0.192,0.306,0.296,0.284,0.151,0.093,south-southwest,9.8,No
2018/06/18,01:10,0.303,0.192,0.307,0.296,0.282,0.151,0.093,south-southwest,9.0,No
2018/06/18,01:20,0.304,0.191,0.307,0.296,0.283,0.152,0.093,south-southwest,10.0,No
2018/06/18,01:30,0.301,0.191,0.306,0.296,0.283,0.152,0.093,south-southwest,9.8,No
2018/06/18,01:40,0.304,0.192,0.308,0.295,0.282,0.150,0.093,south-southwest,10.3,No
2018/06/18,01:50,0.303,0.191,0.308,0.295,0.282,0.151,0.093,south-southwest,10.7,No
2018/06/18,02:00,0.303,0.191,0.306,0.297,0.284,0.151,0.093,south-southwest,10.0,No
2018/06/18,02:10,0.303,0.192,0.307,0.296,0.282,0.151,0.093,south-southwest,9.6,No
2018/06/18,02:20,0.304,0.193,0.306,0.296,0.285,0.152,0.093,south-southwest,9.5,No
2018/06/18,02:30,0.302,0.193,0.307,0.296,0.282,0.151,0.094,south-southwest,8.7,No
2018/06/18,02:40,0.304,0.192,0.306,0.296,0.284,0.151,0.093,south-southwest,9.3,No
2018/06/18,02:50,0.302,0.193,0.308,0.295,0.282,0.152,0.093,south,9.2,No
2018/06/18,03:00,0.305,0.192,0.306,0.296,0.286,0.152,0.093,south-southwest,8.1,No
2018/06/18,03:10,0.303,0.192,0.307,0.295,0.283,0.152,0.093,south-southwest,8.1,No
2018/06/18,03:20,0.303,0.192,0.307,0.298,0.285,0.151,0.094,south-southwest,8.2,No
2018/06/18,03:30,0.302,0.192,0.305,0.297,0.282,0.152,0.094,south-southwest,8.1,No
2018/06/18,03:40,0.304,0.193,0.308,0.296,0.285,0.151,0.094,south-southwest,8.4,No
2018/06/18,03:50,0.303,0.193,0.305,0.295,0.283,0.152,0.094,south-southwest,7.2,No
2018/06/18,04:00,0.304,0.192,0.307,0.299,0.285,0.152,0.094,south-southwest,6.5,No
2018/06/18,04:10,0.304,0.192,0.305,0.295,0.282,0.152,0.094,south-southwest,8.1,No
2018/06/18,04:20,0.304,0.192,0.307,0.299,0.285,0.151,0.093,south-southwest,6.9,No
2018/06/18,04:30,0.303,0.192,0.306,0.296,0.282,0.152,0.094,south-southwest,6.9,No
2018/06/18,04:40,0.303,0.192,0.308,0.298,0.286,0.151,0.094,south-southwest,6.7,No
2018/06/18,04:50,0.304,0.193,0.307,0.296,0.282,0.152,0.094,south-southwest,7.0,No
2018/06/18,05:00,0.303,0.192,0.308,0.297,0.285,0.151,0.094,south-southwest,6.2,No
2018/06/18,05:10,0.305,0.192,0.305,0.295,0.282,0.153,0.093,south-southwest,5.5,No
2018/06/18,05:20,0.303,0.191,0.307,0.298,0.284,0.151,0.094,south,4.2,No
2018/06/18,05:30,0.306,0.194,0.307,0.297,0.281,0.152,0.094,south-southwest,4.3,No
2018/06/18,05:40,0.302,0.192,0.307,0.298,0.285,0.152,0.094,south-southwest,4.9,No
2018/06/18,05:50,0.305,0.192,0.307,0.295,0.281,0.152,0.093,south-southwest,5.2,No
2018/06/18,06:00,0.303,0.192,0.306,0.296,0.284,0.151,0.094,south-southwest,5.9,No
2018/06/18,06:10,0.304,0.192,0.307,0.295,0.283,0.152,0.094,south,4.8,No
2018/06/18,06:20,0.304,0.191,0.307,0.298,0.284,0.151,0.094,south-southwest,4.6,No
2018/06/18,06:30,0.303,0.193,0.307,0.295,0.284,0.152,0.093,south-southwest,4.4,No
2018/06/18,06:40,0.305,0.191,0.307,0.298,0.283,0.151,0.093,south,3.2,No
2018/06/18,06:50,0.303,0.192,0.307,0.297,0.284,0.152,0.094,south-southwest,2.0,No
2018/06/18,07:00,0.306,0.192,0.309,0.295,0.282,0.152,0.093,south-southwest,2.9,No
2018/06/18,07:10,0.302,0.190,0.306,0.297,0.282,0.152,0.093,south-southwest,3.6,No
2018/06/18,07:20,0.305,0.193,0.307,0.295,0.283,0.151,0.094,south-southwest,5.0,No
2018/06/18,07:30,0.303,0.192,0.307,0.297,0.281,0.151,0.094,south-southwest,5.4,No
2018/06/18,07:40,0.302,0.192,0.303,0.298,0.284,0.153,0.093,south-southwest,4.9,No
2018/06/18,07:50,0.306,0.191,0.304,0.294,0.285,0.151,0.093,south,7.0,No
2018/06/18,08:00,0.303,0.193,0.308,0.293,0.281,0.151,0.094,south,6.8,No
2018/06/18,08:10,0.302,0.191,0.306,0.297,0.283,0.152,0.093,south,6.3,No
2018/06/18,08:20,0.306,0.191,0.305,0.296,0.285,0.152,0.093,south,7.3,No
2018/06/18,08:30,0.303,0.193,0.308,0.293,0.282,0.151,0.094,south,7.9,No
2018/06/18,08:40,0.301,0.193,0.307,0.297,0.282,0.153,0.094,south,8.2,No
2018/06/18,08:50,0.305,0.192,0.303,0.297,0.282,0.152,0.092,south,9.2,No
2018/06/18,09:00,0.305,0.190,0.307,0.296,0.285,0.152,0.094,south,9.8,No
2018/06/18,09:10,0.300,0.193,0.307,0.296,0.282,0.152,0.094,south,9.6,No
2018/06/18,09:20,0.306,0.193,0.305,0.297,0.282,0.152,0.093,south,9.3,No
2018/06/18,09:30,0.305,0.191,0.310,0.294,0.285,0.151,0.093,south,10.3,No
2018/06/18,09:40,0.302,0.193,0.307,0.299,0.282,0.152,0.094,south,8.7,No
2018/06/18,09:50,0.306,0.192,0.306,0.297,0.282,0.152,0.093,south,9.2,No
2018/06/18,10:00,0.304,0.192,0.309,0.297,0.285,0.152,0.094,south,9.2,No
2018/06/18,10:10,0.301,0.194,0.307,0.297,0.282,0.151,0.093,south,9.6,No
2018/06/18,10:20,0.305,0.192,0.305,0.298,0.281,0.152,0.092,south,9.5,No
2018/06/18,10:30,0.305,0.191,0.309,0.295,0.284,0.151,0.094,south,9.8,No
2018/06/18,10:40,0.302,0.192,0.307,0.297,0.284,0.151,0.094,south,10.1,No
2018/06/18,10:50,0.302,0.193,0.304,0.299,0.282,0.152,0.093,south,9.8,No
2018/06/18,11:00,0.305,0.192,0.303,0.296,0.281,0.151,0.093,south,10.4,No
2018/06/18,11:10,0.305,0.191,0.308,0.295,0.285,0.151,0.094,south,12.0,No
2018/06/18,11:20,0.303,0.191,0.309,0.299,0.283,0.152,0.093,south,11.5,No
2018/06/18,11:30,0.302,0.193,0.305,0.296,0.281,0.152,0.093,south,12.2,No
2018/06/18,11:40,0.304,0.192,0.306,0.295,0.281,0.151,0.093,south,12.6,No
2018/06/18,11:50,0.306,0.192,0.309,0.299,0.285,0.151,0.093,south,12.5,No
2018/06/18,12:00,0.303,0.190,0.307,0.298,0.284,0.152,0.093,south,11.2,No
2018/06/18,12:10,0.301,0.192,0.305,0.295,0.283,0.152,0.093,south,11.8,No
2018/06/18,12:20,0.305,0.193,0.306,0.295,0.281,0.151,0.095,south,14.0,No
2018/06/18,12:30,0.306,0.192,0.309,0.300,0.284,0.152,0.094,south,12.6,No
2018/06/18,12:40,0.304,0.191,0.306,0.297,0.283,0.151,0.093,south,12.3,No
2018/06/18,12:50,0.302,0.193,0.306,0.295,0.282,0.151,0.093,south,11.7,No
2018/06/18,13:00,0.305,0.193,0.310,0.300,0.285,0.152,0.094,south,12.5,No
2018/06/18,13:10,0.306,0.193,0.308,0.297,0.285,0.151,0.093,south,11.7,No
2018/06/18,13:20,0.302,0.190,0.306,0.296,0.284,0.152,0.093,south,11.4,No
2018/06/18,13:30,0.303,0.194,0.309,0.299,0.282,0.151,0.094,south,11.7,No
2018/06/18,13:40,0.307,0.193,0.308,0.297,0.285,0.153,0.093,south-southwest,12.0,No
2018/06/18,13:50,0.304,0.192,0.306,0.296,0.284,0.153,0.093,south,11.1,No
2018/06/18,14:00,0.303,0.192,0.309,0.300,0.284,0.152,0.093,south,10.1,No
2018/06/18,14:10,0.307,0.193,0.307,0.297,0.286,0.153,0.093,south-southwest,9.5,No
2018/06/18,14:20,0.305,0.192,0.305,0.297,0.285,0.152,0.093,south,10.1,No
2018/06/18,14:30,0.303,0.192,0.309,0.300,0.282,0.150,0.094,south,10.9,No
2018/06/18,14:40,0.306,0.194,0.307,0.297,0.287,0.152,0.094,south,10.7,No
2018/06/18,14:50,0.306,0.192,0.307,0.297,0.284,0.152,0.094,south,10.4,No
2018/06/18,15:00,0.304,0.191,0.309,0.301,0.283,0.152,0.094,south,10.6,No
2018/06/18,15:10,0.308,0.194,0.307,0.297,0.286,0.154,0.093,south,9.0,No
2018/06/18,15:20,0.305,0.192,0.307,0.298,0.284,0.153,0.094,south,9.0,No
2018/06/18,15:30,0.303,0.192,0.308,0.300,0.283,0.151,0.093,south,7.8,No
2018/06/18,15:40,0.307,0.194,0.308,0.296,0.285,0.152,0.094,south,10.3,No
2018/06/18,15:50,0.305,0.193,0.308,0.297,0.284,0.152,0.094,south,9.5,No
2018/06/18,16:00,0.304,0.191,0.309,0.300,0.282,0.151,0.093,south,6.9,No
2018/06/18,16:10,0.307,0.195,0.307,0.296,0.286,0.152,0.093,south,6.2,No
2018/06/18,16:20,0.305,0.193,0.306,0.299,0.284,0.153,0.094,south,6.8,No
2018/06/18,16:30,0.303,0.192,0.311,0.301,0.282,0.151,0.094,south,7.0,No
2018/06/18,16:40,0.307,0.194,0.307,0.296,0.285,0.152,0.094,south,5.6,No
2018/06/18,16:50,0.305,0.192,0.309,0.301,0.285,0.153,0.094,south,5.8,No
2018/06/18,17:00,0.303,0.192,0.309,0.300,0.282,0.152,0.093,south,7.1,No
2018/06/18,17:10,0.308,0.194,0.306,0.297,0.284,0.151,0.095,south,5.8,No
2018/06/18,17:20,0.306,0.191,0.309,0.300,0.285,0.153,0.093,south,6.3,No
2018/06/18,17:30,0.304,0.193,0.307,0.299,0.282,0.150,0.094,south,7.1,No
2018/06/18,17:40,0.307,0.193,0.308,0.298,0.286,0.152,0.094,south,6.7,No
2018/06/18,17:50,0.305,0.192,0.309,0.300,0.285,0.153,0.094,south,6.4,No
2018/06/18,18:00,0.305,0.193,0.307,0.297,0.284,0.151,0.094,south-southwest,6.7,No
2018/06/18,18:10,0.307,0.194,0.310,0.299,0.287,0.153,0.094,south,6.4,No
2018/06/18,18:20,0.305,0.193,0.309,0.300,0.283,0.152,0.094,south,6.5,No
2018/06/18,18:30,0.306,0.193,0.307,0.297,0.283,0.152,0.093,south,6.8,No
2018/06/18,18:40,0.306,0.193,0.310,0.300,0.287,0.153,0.094,south,6.1,No
2018/06/18,18:50,0.303,0.194,0.309,0.298,0.282,0.152,0.094,south-southwest,6.2,No
2018/06/18,19:00,0.307,0.193,0.310,0.300,0.287,0.153,0.094,south-southwest,5.5,No
2018/06/18,19:10,0.304,0.193,0.308,0.299,0.284,0.153,0.093,south-southwest,4.6,No
2018/06/18,19:20,0.305,0.193,0.307,0.298,0.285,0.152,0.094,south,4.3,No
2018/06/18,19:30,0.306,0.193,0.310,0.299,0.285,0.153,0.093,south-southwest,4.0,No
2018/06/18,19:40,0.304,0.195,0.307,0.297,0.284,0.151,0.094,south-southwest,4.3,No
2018/06/18,19:50,0.307,0.193,0.311,0.299,0.285,0.153,0.093,south-southwest,4.9,No
2018/06/18,20:00,0.304,0.194,0.308,0.298,0.283,0.153,0.094,south-southwest,5.5,No
2018/06/18,20:10,0.306,0.192,0.309,0.298,0.286,0.152,0.095,south-southwest,6.1,No
2018/06/18,20:20,0.305,0.194,0.309,0.300,0.284,0.153,0.093,south-southwest,4.5,No
2018/06/18,20:30,0.305,0.192,0.308,0.299,0.284,0.152,0.094,south,3.6,No
2018/06/18,20:40,0.307,0.194,0.310,0.301,0.287,0.152,0.093,south-southwest,3.7,No
2018/06/18,20:50,0.305,0.193,0.308,0.298,0.284,0.153,0.094,south-southwest,3.6,No
2018/06/18,21:00,0.307,0.193,0.311,0.300,0.285,0.152,0.094,south,3.3,No
2018/06/18,21:10,0.304,0.193,0.308,0.298,0.284,0.152,0.094,south,2.1,No
2018/06/18,21:20,0.309,0.194,0.311,0.303,0.286,0.153,0.095,south,1.0,No
2018/06/18,21:30,0.305,0.192,0.308,0.299,0.283,0.152,0.094,-,CALM,No
2018/06/18,21:40,0.307,0.194,0.311,0.300,0.287,0.152,0.094,-,CALM,No
2018/06/18,21:50,0.303,0.193,0.309,0.300,0.283,0.153,0.094,-,CALM,No
2018/06/18,22:00,0.308,0.194,0.311,0.300,0.287,0.153,0.094,-,CALM,No
2018/06/18,22:10,0.305,0.193,0.308,0.299,0.284,0.152,0.095,-,CALM,No
2018/06/18,22:20,0.307,0.194,0.310,0.300,0.285,0.153,0.094,-,CALM,No
2018/06/18,22:30,0.305,0.193,0.308,0.300,0.284,0.153,0.094,-,CALM,No
2018/06/18,22:40,0.307,0.192,0.312,0.299,0.286,0.153,0.094,-,CALM,No
2018/06/18,22:50,0.305,0.194,0.308,0.301,0.283,0.153,0.095,south,1.3,No
2018/06/18,23:00,0.308,0.194,0.311,0.300,0.287,0.153,0.094,south,0.8,No
2018/06/18,23:10,0.304,0.194,0.308,0.299,0.283,0.152,0.094,south,0.9,No
2018/06/18,23:20,0.308,0.193,0.310,0.300,0.285,0.152,0.094,south-southeast,0.8,No
2018/06/18,23:30,0.305,0.195,0.308,0.299,0.284,0.153,0.095,south,0.9,No
2018/06/18,23:40,0.307,0.194,0.312,0.300,0.285,0.154,0.095,south,1.0,No
2018/06/18,23:50,0.305,0.195,0.309,0.298,0.285,0.152,0.095,-,CALM,No
